﻿date,Water levels
4/1/1941,6417.24
5/1/1941,6417.31
6/1/1941,6417.32
7/1/1941,6417.48
8/1/1941,6417.62
9/1/1941,6417.35
10/1/1941,6416.98
11/1/1941,6417.01
12/1/1941,6416.88
1/1/1942,6417.14
2/1/1942,6417.33
3/1/1942,6417.39
4/1/1942,6417.53
5/1/1942,6417.72
6/1/1942,6417.75
7/1/1942,6417.82
8/1/1942,6417.95
9/1/1942,6417.73
10/1/1942,6417.5
11/1/1942,6417.25
12/1/1942,6417.13
1/1/1943,6417.15
2/1/1943,6417.64
3/1/1943,6417.84
4/1/1943,6418.01
5/1/1943,6418.12
6/1/1943,6418.19
7/1/1943,6418.26
8/1/1943,6418.44
9/1/1943,6418.27
10/1/1943,6418.05
11/1/1943,6417.6
12/1/1943,6417.52
1/1/1944,6417.53
2/1/1944,6417.64
3/1/1944,6417.81
4/1/1944,6417.91
5/1/1944,6417.93
6/1/1944,6417.87
7/1/1944,6417.71
8/1/1944,6417.46
9/1/1944,6417.01
10/1/1944,6416.61
11/1/1944,6416.44
12/1/1944,6416.32
1/1/1945,6416.33
2/1/1945,6416.39
3/1/1945,6416.68
4/1/1945,6416.74
5/1/1945,6416.77
6/1/1945,6417
7/1/1945,6417.29
8/1/1945,6417.46
9/1/1945,6417.41
10/1/1945,6417.16
11/1/1945,6417.15
12/1/1945,6417.08
1/1/1946,6417.38
2/1/1946,6417.46
3/1/1946,6417.58
4/1/1946,6417.88
5/1/1946,6418.07
6/1/1946,6417.95
7/1/1946,6417.77
8/1/1946,6417.64
9/1/1946,6417.37
10/1/1946,6416.95
11/1/1946,6416.79
12/1/1946,6417.12
1/1/1947,6417.37
2/1/1947,6417.56
3/1/1947,6417.82
4/1/1947,6418.03
5/1/1947,6418
6/1/1947,6417.8
7/1/1947,6417.52
8/1/1947,6417.11
9/1/1947,6416.62
10/1/1947,6416.33
11/1/1947,6415.98
12/1/1947,6415.76
1/1/1948,6415.68
2/1/1948,6415.73
3/1/1948,6415.68
4/1/1948,6415.69
5/1/1948,6415.63
6/1/1948,6415.48
7/1/1948,6415.34
8/1/1948,6415.01
9/1/1948,6414.45
10/1/1948,6414.06
11/1/1948,6413.83
12/1/1948,6413.5
1/1/1949,6413.58
2/1/1949,6413.6
3/1/1949,6413.6
4/1/1949,6413.61
5/1/1949,6413.55
6/1/1949,6413.45
7/1/1949,6413.11
8/1/1949,6412.8
9/1/1949,6412.38
10/1/1949,6411.92
11/1/1949,6411.64
12/1/1949,6411.62
1/1/1950,6411.45
2/1/1950,6411.5
3/1/1950,6411.52
4/1/1950,6411.52
5/1/1950,6411.41
6/1/1950,6411.27
7/1/1950,6410.97
8/1/1950,6410.71
9/1/1950,6410.3
10/1/1950,6410.07
11/1/1950,6409.73
12/1/1950,6409.92
1/1/1951,6410.02
2/1/1951,6409.92
3/1/1951,6409.92
4/1/1951,6409.77
5/1/1951,6409.74
6/1/1951,6409.55
7/1/1951,6409.37
8/1/1951,6409.06
9/1/1951,6408.57
10/1/1951,6408.22
11/1/1951,6407.9
12/1/1951,6407.87
1/1/1952,6407.89
2/1/1952,6408
3/1/1952,6408.06
4/1/1952,6408.21
5/1/1952,6408.38
6/1/1952,6408.67
7/1/1952,6408.77
8/1/1952,6409.22
9/1/1952,6409.01
10/1/1952,6408.73
11/1/1952,6408.56
12/1/1952,6408.52
1/1/1953,6408.7
2/1/1953,6408.88
3/1/1953,6408.91
4/1/1953,6409.06
5/1/1953,6408.99
6/1/1953,6408.84
7/1/1953,6408.68
8/1/1953,6408.44
9/1/1953,6407.91
10/1/1953,6407.6
11/1/1953,6407.37
12/1/1953,6407.11
1/1/1954,6407.02
2/1/1954,6407.09
3/1/1954,6407.2
4/1/1954,6407.23
5/1/1954,6407.16
6/1/1954,6406.88
7/1/1954,6406.6
8/1/1954,6406.27
9/1/1954,6405.69
10/1/1954,6405.28
11/1/1954,6405
12/1/1954,6404.87
1/1/1955,6404.83
2/1/1955,6404.8
3/1/1955,6404.79
4/1/1955,6404.78
5/1/1955,6404.7
6/1/1955,6404.54
7/1/1955,6404.26
8/1/1955,6403.99
9/1/1955,6403.61
10/1/1955,6403.17
11/1/1955,6402.88
12/1/1955,6402.71
1/1/1956,6403.04
2/1/1956,6403.23
3/1/1956,6403.16
4/1/1956,6403.07
5/1/1956,6403.16
6/1/1956,6403.05
7/1/1956,6402.88
8/1/1956,6402.79
9/1/1956,6402.52
10/1/1956,6402.15
11/1/1956,6401.97
12/1/1956,6401.98
1/1/1957,6402.03
2/1/1957,6402.28
3/1/1957,6402.52
4/1/1957,6402.61
5/1/1957,6402.61
6/1/1957,6402.59
7/1/1957,6402.4
8/1/1957,6401.99
9/1/1957,6401.5
10/1/1957,6401.14
11/1/1957,6400.94
12/1/1957,6400.88
1/1/1958,6401.02
2/1/1958,6401.05
3/1/1958,6401.28
4/1/1958,6401.55
5/1/1958,6401.77
6/1/1958,6401.97
7/1/1958,6402.08
8/1/1958,6402.18
9/1/1958,6401.99
10/1/1958,6401.57
11/1/1958,6401.34
12/1/1958,6401.2
1/1/1959,6401.18
2/1/1959,6401.22
3/1/1959,6401.4
4/1/1959,6401.51
5/1/1959,6401.52
6/1/1959,6401.32
7/1/1959,6401.06
8/1/1959,6400.69
9/1/1959,6400.15
10/1/1959,6399.8
11/1/1959,6399.56
12/1/1959,6399.39
1/1/1960,6399.32
2/1/1960,6399.22
3/1/1960,6399.3
4/1/1960,6399.34
5/1/1960,6399.18
6/1/1960,6398.99
7/1/1960,6398.68
8/1/1960,6398.4
9/1/1960,6397.92
10/1/1960,6397.61
11/1/1960,6397.32
12/1/1960,6397.28
1/1/1961,6397.27
2/1/1961,6397.27
3/1/1961,6397.25
4/1/1961,6397.18
5/1/1961,6396.98
6/1/1961,6396.85
7/1/1961,6396.68
8/1/1961,6396.26
9/1/1961,6395.97
10/1/1961,6395.57
11/1/1961,6395.22
12/1/1961,6395.07
1/1/1962,6394.97
2/1/1962,6395.03
3/1/1962,6395.15
4/1/1962,6395.47
5/1/1962,6395.34
6/1/1962,6395.23
7/1/1962,6395.04
8/1/1962,6394.75
9/1/1962,6394.32
10/1/1962,6394
11/1/1962,6393.72
12/1/1962,6393.58
1/1/1963,6393.47
2/1/1963,6393.63
3/1/1963,6393.95
4/1/1963,6393.9
5/1/1963,6393.8
6/1/1963,6393.74
7/1/1963,6393.66
8/1/1963,6393.4
9/1/1963,6392.99
10/1/1963,6392.76
11/1/1963,6392.45
12/1/1963,6392.31
1/1/1964,6392.27
2/1/1964,6392.19
3/1/1964,6392.25
4/1/1964,6392.29
5/1/1964,6392.07
6/1/1964,6392.06
7/1/1964,6391.73
8/1/1964,6391.38
9/1/1964,6391
10/1/1964,6390.54
11/1/1964,6390.28
12/1/1964,6390.01
1/1/1965,6390.09
2/1/1965,6390.06
3/1/1965,6390.04
4/1/1965,6390.17
5/1/1965,6390.01
6/1/1965,6389.83
7/1/1965,6389.63
8/1/1965,6389.5
9/1/1965,6389.24
10/1/1965,6389.06
11/1/1965,6388.95
12/1/1965,6388.94
1/1/1966,6389.04
2/1/1966,6389.21
3/1/1966,6389.33
4/1/1966,6389.37
5/1/1966,6389.16
6/1/1966,6388.93
7/1/1966,6388.61
8/1/1966,6388.26
9/1/1966,6387.78
10/1/1966,6387.41
11/1/1966,6387.19
12/1/1966,6386.95
1/1/1967,6387.11
2/1/1967,6387.28
3/1/1967,6387.28
4/1/1967,6387.38
5/1/1967,6387.44
6/1/1967,6387.51
7/1/1967,6387.67
8/1/1967,6388.69
9/1/1967,6388.72
10/1/1967,6388.72
11/1/1967,6388.56
12/1/1967,6388.66
1/1/1968,6388.66
2/1/1968,6388.86
3/1/1968,6389.01
4/1/1968,6388.94
5/1/1968,6388.78
6/1/1968,6388.56
7/1/1968,6388.29
8/1/1968,6387.97
9/1/1968,6387.48
10/1/1968,6387.16
11/1/1968,6386.93
12/1/1968,6386.76
1/1/1969,6386.69
2/1/1969,6387.15
3/1/1969,6387.52
4/1/1969,6387.75
5/1/1969,6388.29
6/1/1969,6388.89
7/1/1969,6389.57
8/1/1969,6390
9/1/1969,6389.79
10/1/1969,6389.5
11/1/1969,6389.26
12/1/1969,6389.19
1/1/1970,6389.17
2/1/1970,6389.52
3/1/1970,6389.71
4/1/1970,6389.76
5/1/1970,6389.6
6/1/1970,6389.43
7/1/1970,6389.18
8/1/1970,6388.96
9/1/1970,6388.49
10/1/1970,6388.02
11/1/1970,6387.72
12/1/1970,6387.7
1/1/1971,6387.73
2/1/1971,6387.75
3/1/1971,6387.72
4/1/1971,6387.72
5/1/1971,6387.61
6/1/1971,6387.54
7/1/1971,6387.24
8/1/1971,6386.99
9/1/1971,6386.63
10/1/1971,6386.14
11/1/1971,6385.94
12/1/1971,6385.79
1/1/1972,6385.87
2/1/1972,6385.93
3/1/1972,6385.87
4/1/1972,6385.87
5/1/1972,6385.76
6/1/1972,6385.56
7/1/1972,6385.33
8/1/1972,6384.93
9/1/1972,6384.55
10/1/1972,6384.3
11/1/1972,6384.09
12/1/1972,6383.98
1/1/1973,6383.94
2/1/1973,6384.06
3/1/1973,6384.23
4/1/1973,6384.31
5/1/1973,6384.22
6/1/1973,6384.1
7/1/1973,6383.86
8/1/1973,6383.63
9/1/1973,6383.19
10/1/1973,6382.78
11/1/1973,6382.49
12/1/1973,6382.41
1/1/1974,6382.5
2/1/1974,6382.67
3/1/1974,6382.68
4/1/1974,6382.65
5/1/1974,6382.51
6/1/1974,6382.3
7/1/1974,6381.97
8/1/1974,6381.7
9/1/1974,6381.4
10/1/1974,6381.03
11/1/1974,6380.85
12/1/1974,6380.73
1/1/1975,6380.57
2/1/1975,6380.55
3/1/1975,6380.67
4/1/1975,6380.71
5/1/1975,6380.71
6/1/1975,6380.59
7/1/1975,6380.29
8/1/1975,6379.91
9/1/1975,6379.53
10/1/1975,6379.39
11/1/1975,6379.31
12/1/1975,6379.13
1/1/1976,6379.07
2/1/1976,6379.06
3/1/1976,6379.12
4/1/1976,6379.12
5/1/1976,6378.99
6/1/1976,6378.9
7/1/1976,6378.46
8/1/1976,6378.24
9/1/1976,6377.91
10/1/1976,6377.74
11/1/1976,6377.53
12/1/1976,6377.13
1/1/1977,6376.96
2/1/1977,6376.86
3/1/1977,6376.99
4/1/1977,6376.94
5/1/1977,6376.83
6/1/1977,6376.66
7/1/1977,6376.65
8/1/1977,6376.32
9/1/1977,6375.98
10/1/1977,6375.59
11/1/1977,6375.33
12/1/1977,6375.23
1/1/1978,6375.34
2/1/1978,6375.64
3/1/1978,6375.82
4/1/1978,6376.08
5/1/1978,6376.07
6/1/1978,6375.9
7/1/1978,6375.76
8/1/1978,6375.62
9/1/1978,6375.35
10/1/1978,6374.99
11/1/1978,6374.9
12/1/1978,6374.89
1/1/1979,6374.7
2/1/1979,6374.86
3/1/1979,6374.92
4/1/1979,6375.06
5/1/1979,6374.97
6/1/1979,6374.82
7/1/1979,6374.46
8/1/1979,6374.18
9/1/1979,6373.76
10/1/1979,6373.44
11/1/1979,6373.18
12/1/1979,6372.99
1/1/1980,6373.01
2/1/1980,6373.39
3/1/1980,6373.77
4/1/1980,6373.87
5/1/1980,6374.19
6/1/1980,6374.31
7/1/1980,6374.17
8/1/1980,6374.24
9/1/1980,6374.1
10/1/1980,6373.87
11/1/1980,6373.68
12/1/1980,6373.57
1/1/1981,6373.59
2/1/1981,6373.78
3/1/1981,6373.9
4/1/1981,6373.93
5/1/1981,6373.92
6/1/1981,6373.76
7/1/1981,6373.47
8/1/1981,6373.05
9/1/1981,6372.62
10/1/1981,6372.31
11/1/1981,6372.09
12/1/1981,6372.1
1/1/1982,6372.02
2/1/1982,6372.06
3/1/1982,6372.32
4/1/1982,6372.31
5/1/1982,6372.53
6/1/1982,6372.35
7/1/1982,6372.37
8/1/1982,6372.67
9/1/1982,6372.76
10/1/1982,6372.79
11/1/1982,6373.21
12/1/1982,6373.61
1/1/1983,6374.08
2/1/1983,6374.6
3/1/1983,6375.33
4/1/1983,6375.93
5/1/1983,6376.27
6/1/1983,6376.55
7/1/1983,6377.44
8/1/1983,6377.84
9/1/1983,6378.39
10/1/1983,6378.59
11/1/1983,6378.85
12/1/1983,6379.21
1/1/1984,6379.91
2/1/1984,6380.31
3/1/1984,6380.71
4/1/1984,6380.88
5/1/1984,6380.86
6/1/1984,6380.7
7/1/1984,6380.43
8/1/1984,6380.28
9/1/1984,6380.27
10/1/1984,6380.15
11/1/1984,6379.86
12/1/1984,6379.79
1/1/1985,6379.89
2/1/1985,6380
3/1/1985,6380.1
4/1/1985,6380.16
5/1/1985,6380.17
6/1/1985,6379.91
7/1/1985,6379.54
8/1/1985,6379.24
9/1/1985,6378.89
10/1/1985,6378.71
11/1/1985,6378.57
12/1/1985,6378.52
1/1/1986,6378.63
2/1/1986,6378.66
3/1/1986,6379.25
4/1/1986,6379.79
5/1/1986,6380.11
6/1/1986,6380.52
7/1/1986,6380.84
8/1/1986,6380.97
9/1/1986,6380.7
10/1/1986,6380.22
11/1/1986,6380.1
12/1/1986,6379.99
1/1/1987,6380.1
2/1/1987,6380.2
3/1/1987,6380.3
4/1/1987,6380.4
5/1/1987,6380.4
6/1/1987,6380.3
7/1/1987,6380.1
8/1/1987,6379.6
9/1/1987,6379.2
10/1/1987,6379
11/1/1987,6378.8
12/1/1987,6378.8
1/1/1988,6379
2/1/1988,6379.1
3/1/1988,6379.2
4/1/1988,6379.1
5/1/1988,6378.7
6/1/1988,6378.5
7/1/1988,6378.4
8/1/1988,6377.9
9/1/1988,6377.6
10/1/1988,6377.3
11/1/1988,6377
12/1/1988,6376.8
1/1/1989,6376.8
2/1/1989,6376.8
3/1/1989,6376.9
4/1/1989,6377
5/1/1989,6376.9
6/1/1989,6376.8
7/1/1989,6376.4
8/1/1989,6376.1
9/1/1989,6375.7
10/1/1989,6375.4
11/1/1989,6375.3
12/1/1989,6375.27
1/1/1990,6375.32
2/1/1990,6375.57
3/1/1990,6375.77
4/1/1990,6375.9
5/1/1990,6375.9
6/1/1990,6375.9
7/1/1990,6375.8
8/1/1990,6375.7
9/1/1990,6375.3
10/1/1990,6375.2
11/1/1990,6375
12/1/1990,6374.9
1/1/1991,6374.8
2/1/1991,6374.8
3/1/1991,6374.9
4/1/1991,6375.2
5/1/1991,6375.2
6/1/1991,6375.1
7/1/1991,6375.2
8/1/1991,6375
9/1/1991,6374.6
10/1/1991,6374.3
11/1/1991,6374.2
12/1/1991,6374.1
1/1/1992,6374.1
2/1/1992,6374.2
3/1/1992,6374.5
4/1/1992,6374.6
5/1/1992,6374.5
6/1/1992,6374.4
7/1/1992,6374.2
8/1/1992,6374.3
9/1/1992,6373.9
10/1/1992,6373.7
11/1/1992,6373.5
12/1/1992,6373.4
1/1/1993,6373.5
2/1/1993,6373.9
3/1/1993,6374.2
4/1/1993,6374.6
5/1/1993,6374.8
6/1/1993,6374.9
7/1/1993,6375.1
8/1/1993,6375.1
9/1/1993,6375
10/1/1993,6374.8
11/1/1993,6374.7
12/1/1993,6374.7
1/1/1994,6374.8
2/1/1994,6375.1
3/1/1994,6375.3
4/1/1994,6375.5
5/1/1994,6375.5
6/1/1994,6375.8
7/1/1994,6375.6
8/1/1994,6375.3
9/1/1994,6374.9
10/1/1994,6374.6
11/1/1994,6374.5
12/1/1994,6374.5
1/1/1995,6374.5
2/1/1995,6375.1
3/1/1995,6375.2
4/1/1995,6376
5/1/1995,6376.1
6/1/1995,6376.4
7/1/1995,6376.9
8/1/1995,6377.6
9/1/1995,6377.9
10/1/1995,6377.8
11/1/1995,6377.8
12/1/1995,6377.8
1/1/1996,6378.1
2/1/1996,6378.4
3/1/1996,6378.8
4/1/1996,6379.2
5/1/1996,6379.3
6/1/1996,6379.5
7/1/1996,6379.9
8/1/1996,6380.1
9/1/1996,6380
10/1/1996,6379.7
11/1/1996,6379.6
12/1/1996,6380
1/1/1997,6380.4
2/1/1997,6381.1
3/1/1997,6381.3
4/1/1997,6381.5
5/1/1997,6381.5
6/1/1997,6381.8
7/1/1997,6382.2
8/1/1997,6382.4
9/1/1997,6382.2
10/1/1997,6382
11/1/1997,6381.8
12/1/1997,6381.9
1/1/1998,6382
2/1/1998,6382.4
3/1/1998,6382.7
4/1/1998,6383
5/1/1998,6383.1
6/1/1998,6383.2
7/1/1998,6383.7
8/1/1998,6384.3
9/1/1998,6384.5
10/1/1998,6384.3
11/1/1998,6384.2
12/1/1998,6384.3
1/1/1999,6384.3
2/1/1999,6384.6
3/1/1999,6384.8
4/1/1999,6384.8
5/1/1999,6384.8
6/1/1999,6384.9
7/1/1999,6385.1
8/1/1999,6384.9
9/1/1999,6384.7
10/1/1999,6384.4
11/1/1999,6384.3
12/1/1999,6384.2
1/1/2000,6384.1
2/1/2000,6384.3
3/1/2000,6384.4
4/1/2000,6384.5
5/1/2000,6384.5
6/1/2000,6384.5
7/1/2000,6384.6
8/1/2000,6384.3
9/1/2000,6384
10/1/2000,6383.7
11/1/2000,6383.5
12/1/2000,6383.4
1/1/2001,6383.4
2/1/2001,6383.6
3/1/2001,6383.7
4/1/2001,6383.8
5/1/2001,6383.9
6/1/2001,6383.9
7/1/2001,6383.8
8/1/2001,6383.5
9/1/2001,6383.1
10/1/2001,6382.7
11/1/2001,6382.6
12/1/2001,6382.6
1/1/2002,6382.7
2/1/2002,6382.7
3/1/2002,6382.8
4/1/2002,6382.8
5/1/2002,6382.8
6/1/2002,6382.8
7/1/2002,6382.8
8/1/2002,6382.5
9/1/2002,6382.2
10/1/2002,6381.8
11/1/2002,6381.6
12/1/2002,6381.8
1/1/2003,6382
2/1/2003,6382.2
3/1/2003,6382.3
4/1/2003,6382.5
5/1/2003,6382.3
6/1/2003,6382.3
7/1/2003,6382.3
8/1/2003,6382.1
9/1/2003,6381.9
10/1/2003,6381.6
11/1/2003,6381.3
12/1/2003,6381.3
1/1/2004,6381.3
2/1/2004,6381.4
3/1/2004,6381.7
4/1/2004,6381.8
5/1/2004,6381.7
6/1/2004,6381.7
7/1/2004,6381.7
8/1/2004,6381.4
9/1/2004,6381.1
10/1/2004,6380.8
11/1/2004,6380.6
12/1/2004,6380.7
1/1/2005,6380.8
2/1/2005,6381.1
3/1/2005,6381.4
4/1/2005,6381.6
5/1/2005,6381.6
6/1/2005,6381.8
7/1/2005,6382.1
8/1/2005,6382.6
9/1/2005,6382.4
10/1/2005,6382
11/1/2005,6381.9
12/1/2005,6381.9
1/1/2006,6382.3
2/1/2006,6382.6
3/1/2006,6382.9
4/1/2006,6383
5/1/2006,6383.2
6/1/2006,6383.6
7/1/2006,6384.5
8/1/2006,6385.1
9/1/2006,6384.8
10/1/2006,6384.5
11/1/2006,6384.5
12/1/2006,6384.4
1/1/2007,6384.5
2/1/2007,6384.6
3/1/2007,6384.7
4/1/2007,6384.8
5/1/2007,6384.7
6/1/2007,6384.5
7/1/2007,6384.2
8/1/2007,6384
9/1/2007,6383.5
10/1/2007,6383.1
11/1/2007,6382.9
12/1/2007,6382.8
1/1/2008,6382.8
2/1/2008,6383.1
3/1/2008,6383.2
4/1/2008,6383.3
5/1/2008,6383.2
6/1/2008,6383.2
7/1/2008,6383.4
8/1/2008,6383.1
9/1/2008,6382.6
10/1/2008,6382.4
11/1/2008,6382.1
12/1/2008,6382.2
1/1/2009,6382.1
2/1/2009,6382.2
3/1/2009,6382.4
4/1/2009,6382.5
5/1/2009,6382.3
6/1/2009,6382.5
7/1/2009,6382.5
8/1/2009,6382.3
9/1/2009,6381.9
10/1/2009,6381.7
11/1/2009,6381.5
12/1/2009,6381.4
1/1/2010,6381.4
2/1/2010,6381.7
3/1/2010,6381.9
4/1/2010,6381.96
5/1/2010,6381.96
6/1/2010,6381.9
7/1/2010,6382.08
8/1/2010,6382.28
9/1/2010,6381.85
10/1/2010,6381.58
11/1/2010,6381.63
12/1/2010,6381.55
1/1/2011,6381.91
2/1/2011,6382
3/1/2011,6382.1
4/1/2011,6382.3
5/1/2011,6382.51
6/1/2011,6382.64
7/1/2011,6383.29
8/1/2011,6383.91
9/1/2011,6383.87
10/1/2011,6383.71
11/1/2011,6383.7
12/1/2011,6383.57
1/1/2012,6383.6
2/1/2012,6383.84
3/1/2012,6383.91
4/1/2012,6383.95
5/1/2012,6383.91
6/1/2012,6383.68
7/1/2012,6383.33
8/1/2012,6383.02
9/1/2012,6382.7
10/1/2012,6382.4
11/1/2012,6382.14
12/1/2012,6381.96
1/1/2013,6382
2/1/2013,6382.05
3/1/2013,6382.11
4/1/2013,6382.1
5/1/2013,6382.04
6/1/2013,6381.9
7/1/2013,6381.65
8/1/2013,6381.44
9/1/2013,6380.98
10/1/2013,6380.61
11/1/2013,6380.49
12/1/2013,6380.4
1/1/2014,6380.39
2/1/2014,6380.55
3/1/2014,6380.61
4/1/2014,6380.67
5/1/2014,6380.59
6/1/2014,6380.39
7/1/2014,6380.14
8/1/2014,6379.89
9/1/2014,6379.6
10/1/2014,6379.31
11/1/2014,6379.06
12/1/2014,6378.92
1/1/2015,6378.89
2/1/2015,6378.95
3/1/2015,6379.05
4/1/2015,6379.01
5/1/2015,6378.91
6/1/2015,6379.14
7/1/2015,6379.01
8/1/2015,6378.79
9/1/2015,6378.44
10/1/2015,6378.19
11/1/2015,6378.1
12/1/2015,6377.95
1/1/2016,6377.85
2/1/2016,6378
3/1/2016,6378.1
4/1/2016,6378.11
5/1/2016,6378.15
6/1/2016,6378.2
7/1/2016,6378.31
8/1/2016,6378.02
9/1/2016,6377.66
10/1/2016,6377.33
11/1/2016,6377.19
12/1/2016,6377.09
1/1/2017,6377.12
2/1/2017,6377.7
3/1/2017,6378.14
4/1/2017,6378.3
5/1/2017,6378.5
6/1/2017,6378.83
7/1/2017,6380.2
8/1/2017,6381.16
9/1/2017,6381.55
10/1/2017,6381.47
11/1/2017,6381.4
12/1/2017,6381.4
1/1/2018,6381.5
2/1/2018,6381.6
3/1/2018,6381.6
4/1/2018,6381.9
5/1/2018,6381.9
6/1/2018,6382.1
7/1/2018,6382.1
8/1/2018,6382.1
9/1/2018,6381.8
10/1/2018,6381.4
11/1/2018,6381.3
12/1/2018,6381.3
